Погода в Полоцке

Хотите узнать прогноз погоды в Полоцке? Тогда Вам сюда: Погода в Полоцке

Поиск расширенной информации на нашем сайте:

Полезная информация:

Новости сайта



02.01.2020
Опубликован Долгосрочный прогноз погоды по городам России и ближнего зарубежья на январь 2020 года.
Карты: Прогноз на январь и февраль 2020 года, Сравнение прогнозируемой аномалии приземной температуры воздуха на январь 2020 года по разным моделям.




Погода в Полоцке - сегодня

Время (UTC), дата Ветер
(°,м/с) 
Видим.   Явления Облачность Т
(°С)
Тd
(°С)
f(%) Тe
(°С)
Pmin
(гПа)
dP
(гПа)
Po
(мм)
O2
(г/м3)
Тmin Tmax R s Состояние
почвы
09 22.10.21 240 (ЮЗ) 8-15{14}  10 км  в посл. час ливневой дождь  9/5 600 м кучево-дожд., средняя 
[Cb cap|Ac trans]
+8.1 +2.1 66 +6  996.8  2.4  736  288           
12 22.10.21 240 (ЮЗ) 7-13{15}  10 км  слаб. ливневой дождь  10/10 800 м кучево-дожд. 
[Cb cap]
+8.4 +1.7 63 +6  998.8  737  288      0.0     
15 22.10.21 220 (ЮЗ) 5-10{14}  10 км  в посл. час ливневой дождь  8/5 600 м кучево-дожд., средняя 
[Cb cap|Ac trans]
+6.3 +3.2 81 +4  1000.3  1.4  738  290           
18 22.10.21 210 (ЮЗ) 5-10{11}  10 км  {ливн. осадки}  9/0 средняя 
[Ac trans]
+7.9 +0.9 61 +6  1000.1  -0.2  738  289    +9.4  0.1     
21 22.10.21 220 (ЮЗ) 6-11{12}  10 км    9/0 средняя 
[Ac und]
+8.2 +1.1 61 +6  999.2  -0.9  737  288           
00 23.10.21 210 (ЮЗ) 6-11{13}  7000 м  слаб. ливневой дождь  9/9 720 м кучево-дожд., средняя 
[Cb cap|Ac und]
+7.1 +3 75 +5  998.3  -0.8  737  289      0.0     
03 23.10.21 260 (З) 5-10{17}  9000 м  слаб. дождь{ливн. осадки}  10/10 360 м 
[Frnb|Ns]
+5.1 +3.7 91 +3  1000.2  1.7  738  291         
06 23.10.21 230 (ЮЗ) 10 км  в посл. час ливневой дождь  9/9 600 м кучево-дожд. 
[Cb cap]
+5 +2.5 84 +3  1002.8  2.6  740  292  +4.5       
09 23.10.21 230 (ЮЗ) 5-10{10}  15000 м    9/9 720 м кучево-дожд. 
[Cb cap]
+6.8 +1.3 68 +5  1005.2  2.4  742  291           
12 23.10.21 260 (З) 4{10}  15000 м  в посл. час ливневой дождь  10/10 700 м кучево-дожд. 
[Cb cap]
+6.4 +4.3 86 +5  1007  1.8  743  292         
15 23.10.21 240 (ЮЗ) 5{10}  10 км  {ливн. осадки}  10/10 600 м кучево-дожд. 
[Cb cap]
+7.3 +1.7 68 +6  1008.4  1.4  744  292           
18 23.10.21 270 (З) 3{11}  9000 м  слаб. ливневой дождь  10/10 630 м кучево-дожд. 
[Cb cap]
+5.7 +3.3 85 +5  1011.6  746  294    +7.5     
21 23.10.21 280 (З) 10 км  {ливн. осадки}  9/9 600 м 
[Sc]
+4.2 +1.9 85 +4  1014.5  2.7  749  297           
00 24.10.21 300 (СЗ) 10 км  {ливн. осадки}  9/9 570 м 
[Sc]
+3.9 +1.9 87 +3  1017.4  2.9  751  298           
03 24.10.21 320 (СЗ) 10 км    9/8 540 м средняя 
[Sc|Ac trans]
+2.9 +1.1 88 +4  1020.2  2.8  753  300      0.8     
06 24.10.21 320 (СЗ) 15000 м  {ливн. осадки}  8/4 600 м кучево-дожд., средняя 
[Cb cap|Ac trans]
+1.6 -0.6 85 +2  1023.3  2.9  755  302  +0.7       
09 24.10.21 340 (С) 15000 м    9/9 540 м 
[Sc]
+3.8 -0.8 72 +3  1025.7  2.5  757  301           
12 24.10.21 340 (С) 20000 м    8/5 600 м верхняя 
[Sc|Ci fib]
+5.6 -3.5 52 +5  1027.4  1.8  758  300           
15 24.10.21 290 (З) 10 км    9/0 средняя 
[Ac trans]
+3.5 -2.5 65 +4  1028.7  1.2  759  302           
18 24.10.21 тихо ()   10 км    8/0 верхняя 
[Ci fib]
+2.5 -2.1 72 +3  1029.6  0.7  760  304    +6       
21 24.10.21 тихо ()   10 км    9/0 средняя 
[Ac trans]
+0.3 -1.1 90 1030.6  0.8  760  306           
00 25.10.21 200 (Ю) 10 км    9/0 средняя 
[Ac trans]
+0.4 -0.7 92 +1  1030.6  0.1  760  306           
03 25.10.21 200 (Ю) 10 км    8/0 верхняя 
[Ci fib]
-0.9 -2.1 92 1030.7  760  308           
06 25.10.21 210 (ЮЗ) 10 км    6/0 верхняя 
[Ci fib]
+0 -1.5 90 -1  1030  -0.6  760  306  -1.3         
09 25.10.21 220 (ЮЗ) 20000 м    6/1 1000 м средняя, верхняя 
[Sc|Ac trans|Cc]
+6.4 +1.4 70 +5  1029.3  -0.3  760  299           
Время (UTC), дата Ветер
(°,м/с) 
Видим.   Явления Облачность Т
(°С)
Тd
(°С)
f(%) Тe
(°С)
Pmin
(гПа)
dP
(гПа)
Po
(мм)
O2
(г/м3)
Тmin Tmax R s Состояние
почвы

Для получения пояснительной информации подведите курсор к названию столбца.

ПОГОДА в Полоцке - архив

Всё, что Вы хотите узнать о погоде в Полоцке - удобно и подробно!

Выберите нужную дату (начиная с 1 января 2019* года) и нажмите кнопку "Найти".
Будут отображены архивные сводки погоды по пункту Полоцк, начиная с указанной даты.


Отображать данные в формате CSV (для использования в таблицах Excel)


Внимание! Наш архив погоды предназначен исключительно для личного некоммерческого использования в познавательных целях. Если Вам необходимы официальные справки о состоянии погоды (для производственных, юридических, коммерческих и т.п. целей), обращайтесь в органы Росгидромета.

*Примечание: данная дата относится к архиву по метеостанциям СССР (Россия, СНГ, Балтия).
Архив по метеостанциям Зарубежной Европы и Азии (кроме Китая) хранится 10 дней, по другим регионам земного шара (Китай, Африка, Америка, Австралия, Океания) - 1 день.

Полоцк - район местоположения метеостанции


Название, широта, долгота, высота метеостанции:
Полоцк 55.5°ш. 28.8°д. 133 м над ур. моря [Беларусь]

Дополнительная информация

В oтличие oт бoльшинства пoгoдных сайтoв мы публикуем пoдрoбную метеoинфoрмацию в детальнoм прoфессиoнальнoм фoрмате.

Характеристики температуры и влажнoсти вoздуха измеряются на высoте 2 м в тени вдали oт зданий и деревьев.
Скoрoсть ветра измеряется на высoте 10 м (на урoвне рoста челoвека скoрoсть ветра ниже в 1.5-2 раза). Если метеoстанция нахoдится в гoрoде или в лесу, тo скoрoсть ветра занижена на 2-4 м/с пo сравнению с oткрытым местoм. Скoрoсть ветра над акватoриями крупных рек и oзёр, а также на вершинах хoлмoв на 2-5 м/с выше, чем в oбычных услoвиях.
Атмoсфернoе давление в разных тoчках местнoсти мoжет значительнo oтличаться oт давления на метеoстанции, в зависимoсти oт услoвий рельефа (при пoдъёме на 10 м давление пoнижается примернo на 1 мм рт.ст.).